[[{"header":{"parameterUnit":"m.s-1","parameterCategory":1,"la1":30.2992,"la2":30.254,"lo1":-89.0895,"lo2":-89.0443,"dy":0.0025,"dx":0.0025,"nx":19,"ny":19,"refTime":"2026-04-20T03:00:00:Z","depth":0,"parameterNumber":2,"parameterNumberName":"U-component_of_WINDS"},"data":[0,0,0,-1.5355,-1.5362,-1.57,-1.5701,-1.6138,-1.6142,0,0,0,0,0,0,0,0,0,0,0,-1.525,-1.5253,-1.5354,-1.5362,-1.57,-1.5701,-1.6137,-1.6142,0,0,0,0,0,0,0,0,0,0,0,-1.5249,-1.5252,-1.5256,-1.5364,-1.5699,-1.5701,-1.6136,-1.5881,0,0,0,0,0,0,0,0,0,0,-1.5553,-1.5451,-1.5252,-1.5256,-1.5365,-1.5699,-1.5702,-1.5869,-1.5897,-1.5985,0,-1.6055,0,-1.6105,-1.6171,-1.6172,0,0,0,-1.5367,-1.5428,-1.5522,-1.5256,-1.5368,-1.5699,-1.5549,-1.5885,-1.5917,-1.6022,-1.6061,-1.6078,-1.6112,-1.6173,-1.6176,-1.6649,-1.6651,0,0,-1.5349,-1.5311,-1.55,-1.5542,-1.5483,-1.5538,-1.5559,-1.5904,-1.5947,-1.6063,-1.6088,-1.6119,-1.6176,-1.618,-1.6647,-1.6649,0,0,0,-1.5292,-1.5297,-1.5383,-1.5524,-1.5584,-1.5548,-1.5572,-1.5932,-1.5963,-1.6093,-1.6124,-1.6179,-1.6184,-1.6645,-1.6648,-1.6709,0,0,0,-1.5281,-1.5264,-1.5375,-1.5355,-1.5577,-1.5761,-1.5592,-1.5939,-1.5979,-1.6122,-1.6179,-1.6188,-1.6643,-1.6647,-1.6703,-1.6746,0,0,0,-1.523,-1.5258,-1.5305,-1.5352,-1.5495,-1.5756,-1.5807,-1.5948,-1.5998,-1.6172,-1.6189,-1.6641,-1.6646,-1.6697,-1.6737,-1.6862,0,0,0,-1.5167,-1.5356,-1.5305,-1.553,-1.5492,-1.5788,-1.5805,-1.6029,-1.6185,-1.6181,-1.6643,-1.6648,-1.6695,-1.6731,-1.6855,-1.6961,-1.7001,0,0,-1.5385,-1.5381,-1.5516,-1.5481,-1.5775,-1.574,-1.6047,-1.6229,-1.6283,-1.6526,-1.6538,-1.6705,-1.6736,-1.686,-1.7229,-1.726,0,0,0,-1.5573,-1.567,-1.5756,-1.59,-1.604,-1.6166,-1.6303,-1.6372,-1.6579,-1.6397,-1.6783,-1.6803,-1.6878,-1.6931,-1.6957,-1.7026,-1.6669,-1.6669,-1.6668,-1.5831,-1.5885,-1.6114,-1.621,-1.635,-1.649,-1.6611,-1.6728,-1.6745,-1.6835,-1.6909,-1.7125,-1.7186,-1.7206,-1.7276,-1.6966,-1.6967,-1.6967,-1.6967,-1.6159,-1.6306,-1.6321,-1.6548,-1.6608,-1.6802,-1.6946,-1.6951,-1.7145,-1.7074,-1.7143,-1.7063,-1.7238,-1.7303,-1.6972,-1.6972,-1.6971,-1.697,-1.697,-1.6336,-1.6417,-1.6492,-1.6708,-1.6869,-1.6962,-1.7146,-1.7194,-1.7241,-1.7308,-1.7394,-1.7394,-1.7402,-1.7345,-1.7346,-1.7346,-1.7347,-1.7348,-1.7348,-1.6492,-1.6575,-1.6722,-1.6885,-1.6985,-1.7124,-1.7267,-1.737,-1.7496,-1.7517,-1.7518,-1.753,-1.7242,-1.7171,-1.736,-1.7358,-1.7357,-1.7355,-1.7355,-1.6811,-1.6746,-1.6972,-1.7072,-1.727,-1.743,-1.7486,-1.7691,-1.7783,-1.7874,-1.787,-1.7648,-1.765,-1.7629,-1.7571,-1.7854,-1.7854,-1.7854,-1.7854,-1.6964,-1.6967,-1.721,-1.7367,-1.7526,-1.7601,-1.7862,-1.7977,-1.8087,-1.8149,-1.8114,-1.804,-1.8016,-1.8033,-1.8003,-1.795,-1.8323,-1.8323,-1.8324,-1.7165,-1.7186,-1.7395,-1.7495,-1.7654,-1.7792,-1.8041,-1.8227,-1.8338,-1.8344,-1.8199,-1.818,-1.806,-1.8017,-1.8023,-1.7976,-1.788,0,0]},{"header":{"parameterUnit":"m.s-1","parameterCategory":1,"la1":30.2992,"la2":30.254,"lo1":-89.0895,"lo2":-89.0443,"dy":0.0025,"dx":0.0025,"nx":19,"ny":19,"refTime":"2026-04-20T03:00:00:Z","depth":0,"parameterNumber":3,"parameterNumberName":"V-component_of_WINDS"},"data":[0,0,0,-2.3245,-2.3245,-2.325,-2.325,-2.326,-2.326,0,0,0,0,0,0,0,0,0,0,0,-2.3247,-2.3247,-2.3245,-2.3245,-2.325,-2.325,-2.326,-2.326,0,0,0,0,0,0,0,0,0,0,0,-2.3247,-2.3247,-2.3248,-2.3245,-2.325,-2.325,-2.326,-2.3254,0,0,0,0,0,0,0,0,0,0,-2.3249,-2.3255,-2.3247,-2.3248,-2.3245,-2.325,-2.325,-2.3254,-2.3255,-2.326,0,-2.3267,0,-2.3264,-2.3261,-2.3261,0,0,0,-2.3242,-2.3255,-2.3253,-2.3248,-2.3245,-2.325,-2.3247,-2.3254,-2.3255,-2.3261,-2.3267,-2.3267,-2.3264,-2.3261,-2.3261,-2.3302,-2.3302,0,0,-2.3242,-2.325,-2.3252,-2.3253,-2.3255,-2.3247,-2.3247,-2.3255,-2.3261,-2.3267,-2.3267,-2.3264,-2.3261,-2.3261,-2.3301,-2.3302,0,0,0,-2.3243,-2.325,-2.3248,-2.3253,-2.3254,-2.3247,-2.3248,-2.3261,-2.326,-2.3267,-2.3264,-2.3261,-2.3262,-2.3301,-2.3302,-2.3326,0,0,0,-2.3243,-2.3251,-2.3248,-2.3253,-2.3254,-2.3258,-2.3254,-2.3259,-2.326,-2.3264,-2.3261,-2.3262,-2.3301,-2.3301,-2.3324,-2.3336,0,0,0,-2.3246,-2.3251,-2.3253,-2.3253,-2.3256,-2.3258,-2.3257,-2.3259,-2.3258,-2.3261,-2.3262,-2.33,-2.3301,-2.3323,-2.3334,-2.3347,0,0,0,-2.3251,-2.3276,-2.3254,-2.328,-2.3256,-2.3274,-2.3257,-2.3269,-2.3275,-2.3262,-2.3301,-2.3302,-2.3323,-2.3332,-2.3346,-2.336,-2.3367,0,0,-2.3287,-2.328,-2.3295,-2.3275,-2.3299,-2.3272,-2.3298,-2.3295,-2.3288,-2.3297,-2.3298,-2.3325,-2.3333,-2.3347,-2.3405,-2.3411,0,0,0,-2.3309,-2.3319,-2.3324,-2.333,-2.3328,-2.3327,-2.3319,-2.3317,-2.3325,-2.3295,-2.3334,-2.3339,-2.3346,-2.3353,-2.3357,-2.3362,-2.3305,-2.3305,-2.3305,-2.3371,-2.336,-2.3382,-2.3371,-2.3377,-2.3368,-2.337,-2.3366,-2.3354,-2.3363,-2.3365,-2.3402,-2.341,-2.3413,-2.3419,-2.3373,-2.3373,-2.3373,-2.3373,-2.3421,-2.3433,-2.3415,-2.343,-2.3417,-2.3429,-2.342,-2.341,-2.3418,-2.34,-2.3406,-2.3387,-2.342,-2.3424,-2.3375,-2.3375,-2.3374,-2.3374,-2.3374,-2.346,-2.3464,-2.3461,-2.3467,-2.3472,-2.346,-2.3467,-2.3456,-2.3444,-2.345,-2.345,-2.345,-2.3446,-2.3451,-2.3452,-2.3452,-2.3452,-2.3452,-2.3452,-2.35,-2.3497,-2.3506,-2.3505,-2.3506,-2.3505,-2.3495,-2.3495,-2.3491,-2.3482,-2.3482,-2.3466,-2.3426,-2.3415,-2.3454,-2.3453,-2.3453,-2.3453,-2.3453,-2.3553,-2.3539,-2.3553,-2.3554,-2.355,-2.3554,-2.3539,-2.3539,-2.3537,-2.3541,-2.3524,-2.3497,-2.3489,-2.3485,-2.3476,-2.3528,-2.3528,-2.3528,-2.3528,-2.3585,-2.358,-2.359,-2.3591,-2.3592,-2.3578,-2.3591,-2.3582,-2.357,-2.3567,-2.3558,-2.3545,-2.3542,-2.3536,-2.3531,-2.3522,-2.3585,-2.3585,-2.3585,-2.3616,-2.361,-2.3624,-2.3613,-2.3609,-2.3604,-2.3615,-2.3616,-2.36,-2.3587,-2.3565,-2.3562,-2.3541,-2.3536,-2.3522,-2.3515,-2.3498,0,0]}]]